Terug naar catalogus

STARLINK-32153

ActiefCommunicatieVLEO
NORAD 60330·PAYLOAD·🇺🇸 United States

Gelanceerd Aug 2, 2024 vanaf Cape Canaveral Space Force Station

Loading…

Volgende Passages (komende 24 uur)

TLE

VersSource: CelesTrak SupGP

Epoch: Sep 15, 2026, 03:03 UTC

1 60330C 24136B   26258.12756944 -.00010903  00000+0 -32207-3 0  2588
2 60330  53.1577 274.5050 0001281  90.4113 352.1107 15.34402352    14

Volg STARLINK-32153 in realtime met AllMySat

Download on the App Store